Location: Ripley
(48.3812°N, 115.4473°W)
Time: 03:29:28
(UTC+00:00)

CAS-6 - Pass Details

Date: 04 July 2022
Orbit: 613 x 634 km, 97.9° (Epoch: 13 August)

Event Time Altitude Azimuth Distance (km) Brightness Sun altitude
Exits shadow 04:45:13 - 117° (ESE) 2,121 ? -8.1°
Reaches altitude 10° 04:45:35 10° 114° (ESE) 1,999 ? -8.1°
Maximum altitude 04:48:58 23° 63° (ENE) 1,354 ? -8.5°
Drops below altitude 10° 04:52:20 10° 12° (NNE) 2,000 ? -8.8°
Sets 04:54:53 0° 358° (N) 2,908 ? -9.1°
